Regional Weather Roundup
Issued by NWS

Home | Current Version | Previous Version | Text Only | Print | Product List | Glossary On
Versions: 1 2 3 4 5 6 7 8 9 10 11 12 13 14 15 16 17 18 19 20 21 22 23 24 25 26 27 28 29 30 31 32 33 34 35 36 37 38 39 40 41 42 43 44 45 46 47 48 49 50
000
ASUS43 KDTX 212201
RWRMI
MICHIGAN HOURLY REGIONAL WEATHER ROUNDUP
NATIONAL WEATHER SERVICE DETROIT/PONTIAC MI
500 PM EST WED FEB 21 2018

NOTE: "FAIR" INDICATES FEW OR NO CLOUDS BELOW 12,000 FEET WITH NO
SIGNIFICANT WEATHER AND/OR OBSTRUCTION TO VISIBILITY.

MIZ047>049-052>055-059>063-066>070-074>076-081>083-212300-
SOUTHEAST LOWER MICHIGAN

CITY           SKY/WX    TMP DP  RH WIND       PRES   REMARKS
ADRIAN         CLOUDY    37  31  78 NE12      30.53S WCI  29
ALMA           FAIR      35  26  69 N3        30.56S
ANN ARBOR      FAIR      37  30  75 N8        30.52S WCI  31
BAD AXE        PTSUNNY   32  25  74 N3        30.56S
CARO           FAIR      33  25  72 N3        30.56R
DETROIT CITY   PTSUNNY   35  30  82 E9        30.55R WCI  28
DETROIT        CLOUDY    42  32  67 N10       30.53S
FLINT          CLOUDY    36  27  69 N5        30.55R WCI  32
GROSSE ILE     CLOUDY    37  33  88 NE9       30.53S WCI  30
HILLSDALE      PTSUNNY   36  30  80 N5        30.50S WCI  32
HOWELL         PTSUNNY   35  29  80 CALM      30.54R

CITY           SKY/WX    TMP DP  RH WIND       PRES   REMARKS
JACKSON        PTSUNNY   36  29  75 N7        30.53R WCI  30
LAMBERTVILLE   CLOUDY    39  33  77 N5        30.52S
LANSING        FAIR      35  28  75 N7        30.55S WCI  29
LAPEER         FAIR      36  27  70 N5        30.55R WCI  32
MASON          PTSUNNY   37  27  69 N6        30.54R WCI  32
MONROE         CLOUDY    38  34  85 E6        30.52S WCI  34
MT. CLEMENS    CLOUDY    33  33 100 E10       30.54R WCI  25
PONTIAC        CLOUDY    36  27  69 N5        30.52R WCI  32
PORT HOPE        N/A     29  21  72 NE6       30.56R WCI  23
PORT HURON     PTSUNNY   30  25  80 N10       30.56R WCI  21
TRI CITIES     CLOUDY    36  24  62 N5        30.56R WCI  32
MIDLAND        FAIR      35  24  64 N3        30.55S
TROY           CLOUDY    39  31  72 NE5       30.55S
SAGINAW HB     FAIR      34  28  80 E5        30.56R WCI  30
$$
MIZ043>046-050>051-056>058-064>065-071>073-077>080-212300-
SOUTHWEST LOWER MICHIGAN

CITY           SKY/WX    TMP DP  RH WIND       PRES   REMARKS
BATTLE CREEK   CLOUDY    34  28  79 N6        30.55R WCI  29
BENTON HARBOR  FAIR      31  23  72 VRB5      30.58R WCI  26
BIG RAPIDS     FAIR      32  17  52 CALM      30.55R
COLDWATER      CLOUDY    35  32  88 N8        30.53R WCI  29
HOLLAND        FAIR      31  24  75 NW8       30.58R WCI  23
GRAND RAPIDS   CLOUDY    35  26  69 NW7       30.56R WCI  29
IONIA          FAIR      35  26  69 N3        30.54S
KALAMAZOO      CLOUDY    35  28  75 N7        30.55R WCI  29
LUDINGTON      FAIR      26  18  70 NW5       30.60R WCI  21
MARSHALL       CLOUDY    34  28  79 N3        30.54R
MOUNT PLEASANT FAIR      35  21  57 CALM      30.55S
MUSKEGON       CLOUDY    30  19  63 W7        30.59R WCI  23
SOUTH HAVEN    FAIR      31  25  80 N8        30.57S WCI  23
$$
MIZ016>042-212300-
NORTHERN LOWER MICHIGAN

CITY           SKY/WX    TMP DP  RH WIND       PRES   REMARKS
ALPENA         FAIR      30  18  60 NW7       30.57R WCI  23
BEAVER ISLAND  FAIR      24  15  68 W8        30.59R WCI  15
BELLAIRE       FAIR      26  19  73 CALM      30.60R
CADILLAC       FAIR      29  17  62 NW6       30.52R WCI  22
CHARLEVOIX     CLOUDY    24  18  76 NW3       30.63R
FRANKFORT      FAIR      26  16  66 W5        30.60S WCI  21
GAYLORD        FAIR      24  16  71 W8        30.53R WCI  15
GRAYLING       FAIR      27  16  63 W5        30.53R WCI  22
HARBOR SPRINGS PTSUNNY   23  15  70 W6        30.59R WCI  16
HOUGHTON LAKE  FAIR      29  17  61 W3        30.54R
OSCODA         FAIR      30  20  66 E5        30.56R WCI  25
PELLSTON       CLOUDY    24  15  68 SW8       30.59R WCI  15
ROGERS CITY    FAIR      26  18  71 N8        30.58R WCI  18
TRAVERSE CITY  CLOUDY    30  16  56 W5        30.58R WCI  25
$$
MIZ007>008-015-212300-
EASTERN UPPER MICHIGAN

CITY           SKY/WX    TMP DP  RH WIND       PRES   REMARKS
KINROSS        FLURRIES  23  16  74 NW9       30.56R WCI  13
MACKINAC ISLAN FAIR      23  14  70 W6        30.57R WCI  15
NEWBERRY       CLOUDY    24  12  62 W5        30.55R WCI  18
S. S. MARIE    MIX PCPN  24  15  68 NW9       30.56R WCI  14
MUNISING         N/A     22  16  78 NE8       30.57R WCI  12
$$
MIZ004>006-011>014-085-212300-
CENTRAL UPPER MICHIGAN

CITY           SKY/WX    TMP DP  RH WIND       PRES   REMARKS
MANISTIQUE     FAIR      24  15  70 S5        30.56S WCI  18
ESCANABA       FAIR      25  11  55 SW8       30.58R WCI  16
MENOMINEE      FAIR      29   8  41 W6        30.59S WCI  23
SAWYER-GWINN   SUNNY     23   9  54 W5        30.52R WCI  17
$$
MIZ001>003-009>011-084-212300-
WESTERN UPPER MICHIGAN

CITY           SKY/WX    TMP DP  RH WIND       PRES   REMARKS
IRON MOUNTAIN  FAIR      26   7  44 W6        30.51S WCI  19
HOUGHTON       FAIR      18   3  52 W15       30.53R WCI   4
COPPER HARBOR    N/A     20   8  60 NW8       30.56R WCI  10
IRONWOOD       FAIR      22   7  52 SW9       30.54S WCI  12
$$

ABBREVIATIONS USED IN REMARKS
   TC - TEMPERATURE IN CELSIUS
  WCI - WIND CHILL INDEX
   HX - HEAT INDEX
  VSB - VISIBILITY





USA.gov is the U.S. government's official web portal to all federal, state and local government web resources and services.